GFSGBSN_700_rhum_000.txt.gz
RH
16 20 27 42 18 16 20 40 46 63 64 63 63 61 58 60 52 43 52 48 48 73 69 59 51 59 75 78 52 73 71 62 63 41 35 72 75 90 84 77 78 80 71 62 60 62 63
18 21 22 48 21 19 26 42 45 59 72 73 74 75 73 63 60 45 57 55 45 54 66 66 68 79 87 78 58 76 79 66 64 49 34 74 69 65 92 89 82 80 72 65 68 59 65
20 21 26 31 37 18 28 41 41 66 79 75 80 85 84 72 74 67 54 66 64 55 62 77 86 88 76 47 78 66 78 68 65 54 34 52 62 82 96 93 89 87 82 80 64 56 56
21 20 29 26 53 19 23 35 44 76 82 90 84 97 96 90 85 68 64 75 83 70 60 73 82 91 61 72 77 63 76 69 65 56 40 48 71 82 96 98 94 93 91 88 52 58 60
22 20 24 34 36 35 19 27 38 67 72 99 100 100 100 98 83 95 75 74 80 78 78 77 77 88 83 67 68 55 69 70 64 55 42 66 89 98 98 96 91 86 85 82 67 62 49
20 22 20 32 34 50 19 21 20 44 95 99 100 100 99 100 90 94 98 99 79 86 85 82 78 99 73 67 69 65 68 68 67 54 43 98 97 97 96 99 98 78 79 76 72 64 45
20 24 20 26 42 43 28 16 18 37 95 99 100 100 99 99 96 98 98 97 91 87 84 68 60 64 73 66 71 65 68 66 74 53 64 87 98 98 86 69 71 83 84 76 67 58 48
21 24 24 23 41 39 45 18 15 20 94 99 100 99 99 99 97 98 99 99 91 83 80 74 69 70 66 78 69 72 81 77 74 53 87 100 97 95 89 73 86 86 94 85 68 65 50
22 23 26 22 35 46 48 22 14 9 83 100 100 100 99 99 98 98 98 100 98 96 96 81 66 63 75 96 81 67 76 95 81 56 85 98 95 92 94 84 94 97 98 81 74 68 62
22 23 28 22 37 48 43 39 17 8 66 98 100 100 99 99 98 98 95 98 97 97 97 88 83 66 89 92 83 65 78 86 78 56 96 100 100 100 96 90 85 96 77 78 80 83 54
21 24 30 23 40 47 45 50 23 14 16 89 99 100 100 99 98 98 98 98 98 98 96 85 83 79 78 91 72 66 75 99 79 50 95 95 95 100 100 85 80 80 66 85 86 63 52
20 23 33 23 46 49 50 51 47 20 16 23 92 100 100 99 98 98 99 98 98 98 95 84 84 87 95 75 79 60 59 79 96 51 81 100 90 98 90 92 92 84 95 83 68 53 61
21 22 33 24 48 51 52 45 64 39 19 23 38 97 100 100 98 98 98 98 98 98 94 80 84 90 90 82 92 70 65 85 95 79 96 93 89 94 88 97 97 99 96 83 64 66 70
21 22 32 24 44 55 51 51 60 42 18 25 34 50 82 99 99 98 98 98 99 98 82 77 72 63 86 69 98 83 99 100 99 59 88 96 98 99 100 86 89 100 96 57 71 74 61
20 22 30 25 45 57 54 56 56 45 17 26 40 45 63 98 100 99 98 99 94 84 98 99 76 57 66 84 96 92 97 99 99 84 80 99 91 93 85 71 84 98 88 56 56 64 68
25 25 28 26 39 58 58 60 55 51 16 27 41 44 67 97 100 98 99 98 99 98 95 96 99 87 96 97 99 99 99 98 99 88 64 87 85 83 88 96 93 80 62 58 55 66 70
27 30 29 26 36 57 62 64 52 56 17 34 46 61 73 97 100 99 98 98 100 96 87 91 89 88 96 82 99 99 93 99 99 99 68 69 68 83 83 84 88 71 58 54 51 53 64
25 30 27 28 36 57 60 69 49 68 20 40 61 70 84 100 99 99 99 99 99 91 86 81 76 96 87 96 99 100 99 99 97 82 68 72 59 70 58 56 57 55 54 51 49 54 52
23 29 27 27 41 56 56 72 48 68 19 47 84 86 95 100 100 100 100 99 99 94 88 90 91 89 86 91 92 97 100 95 95 79 69 64 56 77 79 63 56 56 55 52 49 46 45
19 29 27 26 42 58 53 69 52 64 18 76 94 93 94 92 100 100 100 99 99 99 100 100 93 92 90 87 76 87 93 95 80 73 72 60 55 53 72 65 59 56 55 54 51 52 50
13 26 28 26 36 57 48 65 56 63 13 74 85 80 89 92 96 100 100 100 100 100 100 100 98 84 83 93 82 76 79 84 94 72 70 76 57 50 46 48 51 54 44 47 52 48 52
12 23 28 26 36 54 44 62 61 65 16 19 56 59 84 87 94 100 100 100 100 100 99 98 87 90 86 70 74 70 78 71 75 86 68 85 62 61 58 49 54 53 50 49 47 49 52
18 18 30 25 37 54 43 53 69 58 37 15 40 63 77 92 99 96 99 98 100 98 100 90 76 89 81 83 69 62 69 66 64 66 70 75 60 56 54 56 57 55 51 49 54 56 56
40 13 31 26 39 53 42 46 69 56 61 11 37 56 75 86 96 83 78 98 97 97 96 98 82 85 88 92 80 84 79 66 60 55 59 57 62 55 45 46 45 40 36 36 47 53 57
52 13 30 25 37 47 43 43 57 64 59 18 24 50 68 76 76 78 69 90 96 99 98 98 99 93 93 81 84 71 71 67 71 70 68 62 58 42 32 33 37 37 31 29 32 34 34
66 16 25 24 30 41 43 42 43 72 54 55 19 42 61 58 51 59 73 76 80 76 100 96 98 94 99 99 81 87 83 75 64 65 60 56 48 43 36 44 60 40 37 41 52 55 55
77 29 23 22 27 37 44 40 42 70 55 64 18 30 55 48 34 45 62 70 64 78 80 88 88 86 90 89 88 75 72 64 54 49 58 64 56 37 36 46 52 55 49 57 66 52 56
82 47 20 21 27 38 46 40 42 59 63 60 22 28 50 53 32 33 46 58 52 71 66 63 66 75 80 70 64 45 43 42 44 43 40 42 37 36 45 62 61 54 63 61 56 53 46
97 63 18 21 30 42 47 40 40 45 70 59 48 24 36 46 34 32 42 49 49 63 55 48 50 57 70 67 52 49 44 48 40 48 44 50 46 50 45 51 53 54 60 61 58 60 59

GFSGBSN_700_rhum_003.txt.gz
RH
18 19 20 25 23 38 27 20 30 46 49 59 64 60 63 68 69 62 52 43 41 43 41 47 41 65 76 70 50 70 81 61 48 76 66 41 52 66 86 74 81 77 79 66 58 63 64
21 19 20 25 28 27 41 19 26 45 46 70 70 70 75 75 80 68 58 46 42 42 60 69 73 73 66 65 69 75 72 63 68 68 69 47 59 66 76 89 82 71 79 70 65 67 66
23 19 21 21 30 30 42 21 20 35 45 74 78 84 76 84 94 78 67 51 46 50 54 57 66 78 68 58 78 88 78 60 75 78 69 50 53 81 96 90 76 84 84 77 70 64 60
22 21 21 20 24 36 38 31 16 26 42 68 83 85 98 100 100 91 77 62 54 59 64 65 81 90 78 64 70 74 69 70 100 77 64 42 71 98 98 93 86 87 87 86 71 71 56
20 23 20 21 19 34 38 42 16 18 26 44 89 85 99 100 100 99 97 95 74 78 84 82 85 92 82 68 75 73 78 76 100 73 59 62 91 98 99 94 95 85 83 80 76 61 61
17 22 20 23 20 27 42 44 23 14 19 28 82 88 97 100 100 99 98 98 97 91 97 98 83 91 83 74 66 68 73 75 97 82 60 88 98 98 96 95 97 97 81 79 71 69 66
15 20 22 23 23 23 43 42 40 14 12 18 79 92 96 100 99 98 97 98 99 100 78 80 74 68 70 72 76 84 74 72 95 98 61 99 99 99 96 80 77 76 68 70 71 70 74
14 18 22 22 27 21 38 47 48 22 9 4 70 95 99 100 99 98 98 99 98 97 96 95 81 72 67 68 74 71 77 64 94 98 62 99 100 98 90 83 81 86 84 80 76 78 77
14 19 24 22 29 21 36 50 50 38 11 3 69 94 100 100 99 98 98 98 98 98 98 88 74 69 65 65 63 90 73 59 94 100 67 93 98 90 95 86 87 90 77 77 86 79 75
14 18 25 23 32 24 34 50 53 50 23 11 47 88 91 100 99 99 98 98 98 98 97 84 79 74 65 79 63 95 69 63 98 93 70 94 100 88 97 81 82 87 84 82 87 89 84
13 16 23 24 36 25 36 54 58 52 53 21 17 54 91 97 100 98 97 99 98 98 97 90 89 93 60 65 82 79 64 85 91 85 83 97 98 96 95 96 80 96 86 86 89 91 86
17 17 22 25 36 26 43 58 62 53 64 36 26 29 60 88 96 99 98 98 98 98 96 97 97 95 72 70 81 79 62 89 98 87 82 100 93 100 82 88 87 93 81 89 94 90 60
24 18 22 27 36 27 39 57 61 60 64 35 26 36 46 68 86 99 98 98 97 98 89 97 96 98 78 68 91 84 59 98 98 98 98 99 100 99 100 99 100 98 86 95 95 79 64
24 25 20 26 36 27 39 58 61 62 66 37 26 37 52 64 86 98 98 98 99 94 88 92 80 97 87 70 96 82 56 95 99 83 91 100 100 98 96 100 93 97 92 83 76 69 58
18 27 21 27 37 28 38 59 63 64 68 42 23 40 47 65 83 99 99 98 89 92 97 79 81 91 90 77 96 75 66 76 98 87 68 98 99 97 82 84 88 99 98 87 60 67 66
13 23 26 28 40 29 40 56 65 66 67 46 26 42 49 64 88 100 98 98 96 99 96 53 72 82 81 83 99 84 80 74 93 75 69 72 91 97 96 99 99 90 83 97 64 66 71
19 20 24 30 40 29 45 54 68 68 67 46 30 56 76 90 99 100 98 98 98 99 85 57 76 72 58 80 99 89 80 95 99 84 86 68 70 91 94 96 96 96 97 90 65 56 64
68 28 20 31 39 29 47 54 70 71 66 44 38 63 93 100 99 98 98 98 100 94 88 82 81 52 48 60 88 96 87 94 87 83 84 74 61 78 91 88 91 78 84 84 54 59 55
94 28 15 30 40 31 49 53 67 74 62 29 64 89 99 100 99 99 99 99 99 93 88 84 77 78 58 75 99 94 90 76 82 96 71 72 68 78 76 74 68 84 86 68 63 52 49
97 90 13 28 40 34 53 54 64 74 63 26 87 96 100 94 96 100 99 99 99 97 96 94 77 81 94 90 83 91 100 97 91 88 72 69 62 64 73 70 65 67 74 69 55 54 51
100 98 44 26 35 36 60 53 59 74 64 22 83 93 92 84 81 96 100 100 99 99 99 100 100 84 81 87 89 87 99 98 100 96 90 79 66 60 58 57 59 56 61 59 55 55 53
100 99 95 18 33 36 62 53 56 75 64 25 58 86 64 84 81 91 100 99 100 100 100 99 96 89 90 70 83 81 64 94 96 100 91 89 80 62 54 56 61 60 58 55 53 52 52
98 100 98 19 33 38 62 52 51 75 64 63 18 42 56 75 89 98 98 100 100 99 100 98 80 82 93 84 75 69 58 68 85 92 94 92 73 66 70 60 62 65 53 54 53 49 38
100 96 98 17 38 37 60 53 49 67 68 71 24 43 60 72 97 95 94 99 100 100 99 93 92 84 81 78 75 81 78 76 78 84 85 92 95 81 53 53 53 49 46 48 48 48 51
99 82 84 44 40 38 57 53 49 62 74 65 30 32 48 74 90 93 88 94 100 100 100 90 94 90 89 93 88 92 86 94 90 97 94 96 92 92 47 46 43 36 38 36 33 38 43
99 99 99 72 40 38 55 50 50 56 73 62 56 22 43 70 57 63 67 77 100 100 100 99 95 100 98 89 91 95 98 85 96 84 87 72 66 59 50 38 46 38 37 36 33 34 29
99 99 100 97 44 37 51 48 48 53 69 65 71 22 39 68 55 39 59 76 84 92 99 100 95 98 100 100 91 80 75 71 68 70 70 61 57 86 50 35 34 32 31 39 51 36 38
99 92 100 100 44 38 47 45 47 51 61 71 69 28 41 62 47 31 52 66 71 69 87 95 99 99 100 99 85 80 73 65 54 55 62 71 58 53 45 41 42 46 46 47 48 54 55
99 100 100 100 46 40 47 45 46 47 53 74 74 40 43 60 47 39 46 56 59 72 73 69 79 83 98 82 81 53 51 59 51 44 47 51 59 50 47 40 34 36 39 51 55 59 52

GFSGBSN_700_rhum_006.txt.gz
RH
23 21 20 19 20 24 29 32 32 19 31 45 49 63 65 67 68 64 66 58 49 42 40 39 35 32 44 65 86 98 87 59 55 71 69 79 68 41 63 92 99 75 81 71 56 58 61
25 21 21 18 20 20 29 31 38 20 23 38 49 59 65 73 70 73 71 64 53 45 43 38 40 63 53 69 50 63 92 84 64 58 58 71 77 76 91 96 99 87 90 75 65 61 68
26 22 20 22 20 19 23 34 38 27 18 30 43 52 61 75 73 80 85 73 59 48 44 49 86 90 81 64 57 54 51 61 63 59 58 66 76 89 92 98 98 98 95 88 68 64 74
24 22 19 23 20 21 19 30 37 37 16 23 32 40 58 82 85 91 93 80 73 61 56 62 88 87 83 62 64 57 61 64 63 56 52 70 72 81 99 98 99 99 98 81 73 86 73
19 19 18 20 23 21 19 21 40 42 22 16 21 30 56 88 83 98 100 96 97 76 74 77 80 81 69 56 51 63 62 59 61 67 55 79 68 96 97 97 98 100 84 78 72 86 80
16 17 17 18 23 20 23 20 36 42 37 14 17 24 71 85 88 100 100 99 96 99 98 99 98 91 70 57 58 60 73 68 68 80 88 85 79 99 99 99 95 86 82 70 73 72 65
12 12 15 17 23 22 24 22 29 46 47 19 13 14 77 92 92 96 100 99 99 100 96 77 83 80 74 61 62 61 68 74 74 84 95 93 90 98 95 99 89 70 71 75 71 70 72
15 14 13 16 22 24 25 25 25 48 49 30 14 6 77 90 97 100 99 99 98 99 97 88 95 97 94 83 66 75 77 72 72 68 100 99 98 97 100 98 95 80 76 74 66 70 75
15 16 15 14 24 26 25 28 24 46 53 51 19 8 69 85 90 93 99 98 98 98 98 97 98 97 96 86 63 78 76 72 65 73 99 88 92 100 100 100 99 82 82 68 66 78 82
12 19 15 14 24 26 27 31 24 50 57 65 50 21 28 80 68 91 99 98 98 98 98 95 99 94 94 93 71 64 83 76 88 92 98 98 99 100 99 99 99 81 85 83 82 89 69
12 18 20 14 21 25 30 33 25 56 62 61 74 35 27 24 60 81 99 98 98 98 95 88 95 98 93 80 82 60 76 88 77 95 98 84 99 100 100 96 96 80 83 87 90 90 86
36 14 25 16 18 22 33 35 31 61 63 62 81 34 30 36 43 68 99 98 98 98 92 93 98 97 94 88 79 74 89 87 92 99 99 81 96 99 99 99 96 92 90 91 90 84 70
96 21 25 24 19 23 38 35 39 64 68 66 87 31 29 36 52 70 92 98 98 97 94 98 96 97 97 69 85 92 84 80 94 98 96 95 99 99 100 100 99 93 94 98 96 88 60
88 96 22 29 21 25 44 36 45 70 75 70 88 35 27 38 61 80 96 98 97 96 96 94 96 98 98 98 99 88 99 100 95 100 85 96 99 100 99 98 97 87 85 61 63 60 47
99 95 73 36 28 30 46 38 49 74 79 73 86 35 26 53 64 76 99 98 92 97 97 96 98 96 100 99 89 98 99 92 91 99 96 98 99 100 94 99 85 99 98 73 58 59 48
98 96 91 90 86 33 50 42 58 77 84 74 88 30 42 66 71 99 98 98 97 98 98 100 87 92 83 91 77 98 90 78 94 96 100 93 99 100 99 99 98 99 94 88 68 58 54
98 98 87 99 98 52 51 46 66 78 86 76 86 31 58 88 100 100 98 98 98 99 99 89 82 86 80 84 77 94 85 85 61 85 99 96 90 98 100 99 96 100 99 96 68 58 42
98 99 92 98 100 74 52 48 68 78 91 80 72 51 71 100 100 99 98 98 98 99 78 68 70 74 70 87 89 96 81 92 65 82 95 82 70 98 96 94 91 85 87 85 70 61 56
97 100 98 93 100 85 52 52 71 77 93 82 54 82 98 100 98 99 98 98 99 100 88 78 69 81 61 83 78 96 91 56 60 77 83 80 69 78 97 91 85 98 93 87 67 55 53
95 99 99 96 100 79 53 55 73 78 93 84 47 99 99 100 100 100 99 99 99 87 92 100 80 76 44 51 69 73 98 62 84 79 78 78 70 54 57 62 70 79 81 79 78 67 54
80 98 99 98 100 84 58 54 74 77 92 88 43 88 98 98 96 100 100 99 100 99 96 100 88 74 69 77 93 93 97 92 87 85 77 89 69 71 65 60 60 62 65 68 73 68 57
42 97 100 100 100 95 60 54 75 75 89 94 51 60 93 92 80 93 100 98 99 100 98 99 98 82 88 69 67 92 69 94 90 96 74 88 79 65 64 64 65 63 58 58 58 68 60
47 97 99 100 100 91 62 61 75 75 78 87 71 35 77 79 74 89 100 99 99 100 99 100 99 97 98 86 75 66 84 90 79 81 75 94 82 74 60 59 67 67 66 60 55 57 56
51 96 99 100 100 92 62 68 71 69 71 92 86 42 36 44 67 100 100 99 100 100 100 100 99 100 83 82 78 79 89 100 99 94 81 95 89 76 75 73 65 51 48 47 48 48 53
32 96 99 100 100 95 76 68 72 67 68 94 88 55 39 53 70 99 98 99 100 100 99 97 93 90 99 100 97 100 100 100 100 100 100 98 95 86 73 91 54 43 49 47 48 41 39
35 93 99 99 98 100 72 68 74 66 67 92 86 66 31 47 64 63 83 98 100 99 100 100 92 86 91 99 94 88 99 99 99 100 100 100 100 99 91 56 49 40 40 36 39 36 28
12 91 98 99 100 100 70 73 75 67 67 88 87 77 26 41 64 47 64 87 100 100 99 99 99 100 99 99 94 83 92 83 92 97 99 99 98 98 81 77 40 37 34 33 42 36 29
16 86 97 99 99 94 77 75 75 69 65 80 91 80 26 41 58 47 50 94 98 99 98 95 100 100 99 100 97 94 91 70 78 80 83 91 74 66 77 92 90 42 41 42 38 34 40
16 78 97 99 99 98 79 74 76 68 62 69 92 79 36 52 58 47 45 68 89 92 99 98 87 98 98 98 88 98 93 91 77 73 71 68 66 71 64 64 50 47 48 48 42 40 48

GFSGBSN_700_rhum_009.txt.gz
RH
28 30 29 23 20 18 17 19 30 32 32 21 31 40 53 63 65 71 71 66 60 57 52 44 39 39 40 48 65 62 75 54 57 64 70 63 63 69 80 100 98 95 79 73 74 69 72
20 30 31 29 21 22 18 17 20 34 37 21 22 33 45 61 75 79 83 72 60 60 54 44 43 45 44 56 45 77 78 71 65 56 61 72 67 70 95 97 93 93 85 80 73 73 72
8 19 28 29 24 21 21 20 16 26 35 34 17 24 38 52 79 79 87 82 75 68 57 45 49 73 69 40 52 44 53 48 64 80 62 60 86 94 92 90 86 93 88 84 77 72 68
10 12 18 24 24 19 24 21 20 18 36 40 21 17 26 42 80 82 95 86 79 72 61 46 50 88 91 56 70 54 52 55 52 49 50 57 92 76 100 92 93 87 88 92 79 73 70
14 11 14 18 20 19 21 22 22 20 28 41 38 15 18 27 85 89 98 100 88 81 70 62 58 72 89 51 60 66 65 56 57 60 58 59 79 83 76 99 92 100 90 86 77 68 70
16 14 12 14 17 18 20 24 23 26 25 45 45 23 14 20 84 97 100 100 99 90 98 88 82 83 69 57 50 52 54 56 63 77 71 70 73 88 79 100 97 93 94 71 75 61 69
36 16 13 13 12 15 17 25 23 30 26 47 48 37 13 11 67 85 90 100 99 98 94 91 82 72 75 63 56 52 51 54 72 98 99 93 88 99 62 82 95 89 85 68 68 60 62
63 36 14 15 14 12 14 23 24 33 31 46 54 48 18 6 52 84 96 99 99 98 100 99 99 93 86 83 80 67 54 66 92 98 100 99 98 82 57 80 99 91 79 65 57 64 66
92 60 25 13 17 15 13 21 26 34 36 46 59 59 37 12 32 80 97 98 100 100 99 98 99 98 98 95 93 84 63 67 99 100 100 98 86 63 95 97 100 98 94 65 65 73 70
100 91 49 14 19 16 14 20 27 32 38 50 65 66 70 35 19 52 59 92 100 99 98 96 78 94 99 98 95 90 83 80 99 100 100 100 85 99 95 98 100 94 83 66 67 74 61
99 98 89 54 16 22 15 24 26 31 39 59 72 72 80 54 38 36 49 79 100 99 96 92 98 99 100 99 98 82 69 77 99 99 95 77 79 97 99 90 100 99 95 76 82 70 87
98 99 99 88 61 26 17 37 28 34 48 71 80 78 90 60 48 51 62 99 100 98 92 95 98 93 96 97 92 88 60 62 98 99 98 87 83 99 92 99 98 96 91 91 90 76 67
99 97 98 93 95 71 31 48 46 44 63 82 94 93 97 91 51 62 77 100 98 97 93 98 96 96 98 98 96 98 96 97 97 100 95 99 97 99 98 99 100 100 99 95 82 80 53
96 99 98 99 91 91 67 84 82 66 74 96 99 100 100 100 70 65 81 100 98 96 92 97 97 97 98 97 97 95 99 99 92 87 98 94 98 99 90 99 98 98 98 61 63 57 44
46 97 98 100 89 86 99 98 92 81 73 100 100 100 100 100 80 81 95 100 97 98 95 96 97 99 97 95 81 83 98 100 96 87 98 93 90 86 96 100 98 99 96 63 52 44 39
48 73 98 100 96 89 100 100 100 86 91 100 100 100 100 97 62 100 100 98 98 98 97 97 96 88 91 92 80 88 98 86 89 96 98 99 90 98 100 100 100 99 78 72 54 50 46
89 52 98 100 91 95 99 99 100 85 99 100 100 100 99 75 99 100 98 99 98 98 98 98 82 76 71 72 78 88 87 69 63 88 96 98 95 98 100 100 98 99 98 76 53 48 38
96 56 93 98 92 96 98 100 100 90 100 100 100 100 88 92 100 99 98 98 98 98 99 90 73 68 58 62 78 86 74 66 58 82 98 99 98 99 98 100 96 90 90 73 54 53 47
100 66 89 99 96 100 98 99 100 94 99 100 100 100 87 99 99 98 100 98 98 99 100 81 83 69 62 63 72 90 83 68 83 64 98 98 97 99 100 95 100 98 86 83 70 57 46
99 94 62 98 100 99 99 97 99 96 100 100 100 97 100 100 99 100 99 98 98 100 94 58 88 74 71 71 72 84 91 83 74 65 100 99 85 71 54 58 83 98 88 79 70 58 50
96 98 59 97 100 99 99 97 94 93 100 100 100 98 100 98 94 98 99 99 99 99 84 85 99 84 80 66 70 85 88 92 82 70 95 99 73 60 53 55 68 72 82 78 77 68 56
99 94 83 96 100 92 98 100 90 95 100 100 100 95 99 97 100 98 97 97 99 98 97 95 99 95 83 68 62 66 85 87 96 91 81 98 84 68 63 62 59 60 65 71 72 70 64
97 99 97 93 100 97 98 97 95 100 100 98 99 100 63 93 99 93 84 95 99 100 99 92 98 96 91 75 79 93 84 94 95 82 86 99 97 68 57 64 68 64 58 61 64 65 60
94 97 94 92 100 99 97 100 93 100 100 93 100 100 82 55 88 92 76 100 99 99 99 96 98 100 92 99 93 86 99 99 99 98 72 94 94 81 79 61 64 50 49 57 58 57 63
93 97 97 91 99 98 98 95 89 97 98 92 100 100 100 62 66 86 94 100 100 99 99 99 98 98 100 100 100 99 100 98 100 100 98 91 99 93 80 80 66 53 51 51 58 45 48
93 100 59 94 98 99 98 76 90 93 95 82 99 100 100 51 64 68 79 85 100 100 100 99 100 100 99 100 99 98 99 99 99 99 100 99 100 99 88 61 62 44 41 41 50 51 44
97 100 58 94 98 96 92 99 90 94 93 80 94 100 100 57 45 67 66 80 99 100 99 99 100 100 99 99 100 88 94 96 96 98 99 100 100 99 94 96 64 50 39 39 46 42 35
96 95 21 94 98 100 99 99 81 91 90 80 89 100 100 59 45 67 61 78 100 100 100 99 99 99 100 100 99 81 81 82 87 92 97 98 98 98 99 99 85 55 43 42 42 35 34
84 97 20 73 100 100 98 95 81 91 87 78 89 100 100 49 48 68 56 74 100 100 100 97 93 88 95 98 91 79 82 74 69 79 93 94 78 70 72 74 57 53 46 44 43 47 41

GFSGBSN_700_rhum_012.txt.gz
RH
9 8 18 21 26 30 26 22 19 19 26 33 36 21 30 40 53 58 65 65 60 63 63 63 58 52 47 44 39 44 55 45 41 50 70 66 66 70 76 87 96 92 94 81 77 67 64
13 9 8 14 20 25 27 23 22 20 20 30 38 29 21 30 44 52 72 66 65 65 64 61 58 53 47 42 42 42 40 48 61 57 63 70 93 88 90 87 92 96 82 80 81 72 71
23 14 11 10 13 20 26 24 22 21 20 22 37 39 20 23 35 44 70 66 66 66 69 67 62 54 48 44 51 47 51 52 68 61 96 81 82 93 100 94 92 88 89 85 75 80 73
43 29 16 13 11 15 20 24 20 24 22 21 33 42 33 18 24 35 63 80 69 76 78 74 65 54 51 47 55 39 48 41 45 56 59 80 100 100 98 100 94 91 96 87 76 78 72
60 48 37 17 14 12 16 20 19 22 24 26 27 43 44 21 18 24 59 87 84 90 93 86 69 61 53 46 46 56 64 65 60 57 53 53 79 88 99 97 96 92 93 80 74 81 77
97 92 65 45 18 13 12 16 19 19 25 28 28 42 50 34 16 19 42 88 92 84 99 98 94 80 67 54 53 54 61 67 64 58 61 67 76 77 90 90 95 98 98 85 87 73 77
97 92 100 85 49 16 14 12 15 17 25 29 33 38 54 46 19 16 25 67 72 87 96 98 95 94 88 69 61 59 59 56 61 67 85 83 87 74 52 62 51 94 88 91 77 75 71
13 94 94 98 80 44 14 15 12 15 22 28 38 37 60 56 27 14 11 51 89 98 98 98 99 99 99 96 85 72 64 64 60 80 98 100 84 32 64 81 84 84 93 89 81 72 72
4 46 91 99 99 72 24 17 14 13 20 29 40 40 67 65 50 27 14 49 87 92 100 98 98 100 98 99 96 92 80 71 58 80 98 88 33 71 88 95 96 97 97 90 98 67 78
3 7 79 99 99 99 76 17 17 14 26 30 40 44 70 74 71 54 30 39 55 94 99 96 94 95 98 99 99 95 99 94 88 88 90 97 77 88 93 94 84 94 77 87 93 96 82
39 5 29 96 99 99 95 89 48 61 80 65 43 45 75 91 90 79 53 47 53 98 98 94 99 94 96 93 99 94 97 98 96 85 94 77 80 87 97 85 78 82 87 85 97 98 86
90 78 55 98 98 99 100 92 99 99 99 94 81 58 86 98 100 88 68 57 70 99 93 90 95 83 93 85 97 99 91 98 96 96 99 81 91 87 66 63 76 89 91 85 99 97 92
91 89 81 40 99 98 98 90 100 100 100 100 100 85 100 99 99 100 68 68 99 98 82 97 90 89 91 98 100 99 98 96 95 99 99 98 91 88 78 88 82 99 99 96 100 99 92
81 95 84 49 75 98 99 89 96 99 100 100 100 100 100 100 100 100 98 78 99 86 86 94 96 96 99 98 97 98 98 94 97 86 98 98 87 63 77 88 80 99 100 100 97 98 57
93 96 93 86 83 98 98 95 94 99 100 100 100 100 100 100 98 99 98 98 88 96 96 97 98 98 100 98 98 98 93 95 80 90 99 85 90 87 64 77 100 97 99 83 85 44 51
96 95 99 97 94 98 99 98 92 95 100 99 98 100 99 99 99 99 98 77 99 100 98 97 97 85 99 96 96 93 95 85 83 90 92 88 98 97 98 100 96 77 83 100 86 58 68
93 94 96 98 82 98 99 94 90 98 98 99 100 100 98 99 99 98 99 93 100 97 98 97 96 86 74 89 72 83 74 66 80 87 99 96 97 99 100 99 98 99 100 86 82 57 56
85 95 97 100 79 97 99 99 97 99 99 99 100 100 98 99 98 98 98 98 97 98 98 98 83 87 65 87 76 86 77 91 87 87 95 92 98 99 92 98 86 98 84 74 53 54 48
89 98 97 98 92 98 99 97 99 98 98 98 99 100 100 99 98 98 96 100 98 98 98 98 74 73 62 63 67 68 81 86 88 84 78 98 98 99 95 99 100 100 96 72 64 61 49
86 96 97 98 92 97 98 99 99 86 96 98 100 99 99 99 96 99 99 99 98 98 98 100 90 79 68 61 59 89 78 90 84 75 96 99 96 99 99 88 87 98 78 64 71 65 52
53 94 98 99 95 98 98 100 98 96 94 99 99 98 97 98 91 97 99 99 99 98 99 87 67 84 67 66 70 64 81 83 80 80 89 98 99 100 81 63 66 62 62 66 74 65 57
50 87 96 97 81 98 90 80 96 98 94 98 100 100 99 98 89 99 91 97 100 98 98 84 66 80 74 73 65 68 76 91 83 90 95 97 90 70 66 66 71 74 71 66 61 71 60
55 75 95 97 95 97 99 99 98 99 97 97 99 98 99 99 95 96 91 99 98 98 98 96 83 90 84 80 87 68 88 70 98 80 86 93 74 78 64 63 58 61 62 67 62 60 64
29 77 88 96 76 93 97 99 98 99 94 100 99 99 100 98 95 92 92 94 96 98 99 94 89 99 89 98 84 92 92 85 91 100 87 66 74 91 68 63 71 54 48 49 56 53 54
56 82 94 97 79 99 100 98 98 100 95 97 99 100 99 98 98 76 81 92 97 99 99 99 100 93 97 98 98 99 98 91 93 91 90 87 89 89 80 75 62 54 51 50 51 52 53
56 90 89 90 70 94 98 98 100 97 87 100 100 100 99 98 98 89 73 84 98 99 99 98 100 99 100 88 100 99 95 99 98 98 99 100 88 87 88 70 75 50 40 42 51 58 54
18 78 90 96 87 84 98 99 100 83 85 97 99 100 99 98 99 80 80 83 96 99 99 99 99 100 99 99 100 92 99 87 97 96 99 100 99 98 98 92 68 60 55 40 50 49 39
21 39 88 93 62 92 99 99 98 100 95 97 95 98 99 98 98 58 48 76 88 99 99 99 99 99 99 100 99 90 90 93 90 91 98 99 98 98 99 98 89 57 57 42 45 39 36
18 35 90 99 66 97 98 98 99 99 82 90 90 98 99 99 98 59 53 73 84 99 99 99 99 99 98 99 97 99 81 83 83 98 93 99 86 94 87 79 62 62 56 49 41 41 43

GFSGBSN_700_rhum_015.txt.gz
RH
36 31 16 11 8 12 22 27 26 20 22 23 21 33 35 23 29 40 52 55 65 62 60 58 57 60 57 52 44 48 47 44 38 36 49 79 84 72 64 66 71 71 63 74 51 51 59
84 49 36 19 13 10 10 19 27 28 21 23 23 26 37 33 21 31 42 51 64 56 57 63 60 58 56 47 52 51 47 43 37 36 39 51 72 78 80 73 95 95 89 82 83 78 65
62 100 66 41 24 15 11 12 18 28 23 24 25 24 35 41 25 22 33 44 54 66 60 61 63 67 59 53 56 53 53 48 44 43 42 64 85 92 87 77 84 91 89 89 77 79 77
30 30 99 87 53 35 16 12 14 20 25 21 26 27 26 43 39 20 23 34 44 67 71 66 69 65 50 56 54 49 52 46 46 56 74 86 98 97 100 93 76 83 82 88 83 75 78
2 11 49 100 100 69 49 17 12 16 21 21 25 30 29 38 46 31 17 22 42 69 87 81 55 70 53 49 52 53 57 57 52 45 77 74 88 99 89 93 93 88 95 91 81 71 77
2 2 9 47 95 100 90 61 16 13 17 20 22 29 33 37 51 44 22 16 27 67 88 88 79 66 64 67 64 56 56 63 69 67 61 50 57 74 86 94 96 95 89 92 89 61 75
2 2 2 3 90 83 100 97 54 14 13 18 19 28 35 34 56 54 29 16 21 37 54 83 93 74 76 86 90 65 61 62 76 78 73 53 63 86 66 66 84 86 91 91 84 81 82
2 2 2 2 22 85 91 99 89 24 14 13 18 27 37 40 54 60 40 21 15 40 63 79 77 72 82 98 98 91 81 67 66 79 66 84 92 53 49 56 75 87 86 80 80 89 80
2 2 2 4 3 57 94 99 98 82 24 20 23 34 39 46 56 66 55 36 24 47 75 79 43 57 64 98 100 98 98 90 70 68 61 50 77 49 60 74 85 77 83 77 86 70 79
2 3 20 35 6 32 74 100 99 94 79 95 95 85 39 49 66 75 68 50 33 43 90 95 75 74 69 97 99 99 100 99 98 94 81 81 66 64 82 80 87 93 57 81 79 99 97
18 64 65 83 80 18 100 98 100 96 87 99 100 100 59 64 82 90 84 64 47 55 97 84 85 73 65 83 95 82 100 99 99 97 96 82 90 61 78 49 92 77 75 87 93 92 100
72 82 75 72 85 78 58 99 99 98 83 96 98 100 93 89 96 100 98 58 63 90 94 85 81 78 77 77 96 100 98 99 98 98 98 92 95 86 75 65 68 71 84 82 99 97 97
48 90 82 82 86 82 55 62 89 98 95 94 99 99 100 100 98 99 100 81 68 96 63 88 89 88 88 97 98 99 99 98 98 98 98 99 85 87 85 88 82 86 94 86 90 96 88
23 91 90 84 98 93 90 42 95 95 97 90 91 96 99 100 100 99 100 95 78 61 63 73 84 94 99 99 96 96 100 97 99 98 96 96 87 78 76 82 78 73 78 91 87 84 73
49 89 92 91 98 92 95 53 100 98 98 97 98 92 99 98 99 100 100 98 72 65 64 76 88 98 98 95 99 100 100 98 77 90 88 86 91 75 73 61 72 70 99 53 98 78 100
33 88 91 91 95 97 92 92 86 98 94 95 98 95 97 84 99 99 99 99 90 77 66 69 98 97 94 85 100 96 93 79 85 70 68 76 94 76 86 96 88 79 75 91 99 99 94
23 83 78 96 97 98 94 97 98 98 98 82 99 88 98 87 99 99 99 97 89 83 77 95 97 98 95 94 88 86 73 65 68 78 78 90 99 89 94 98 85 97 99 92 98 90 90
24 33 71 95 99 98 96 97 98 97 98 100 99 97 95 99 98 98 98 95 82 80 97 97 98 99 100 83 85 81 72 66 88 81 94 89 97 98 91 88 97 76 98 94 92 100 94
29 22 70 95 97 97 92 98 98 84 96 99 98 95 98 94 98 98 96 89 89 85 99 98 98 93 75 87 87 72 66 76 78 88 96 97 98 93 100 100 100 100 91 63 78 99 82
30 19 54 93 97 97 94 98 84 99 97 98 84 99 98 99 99 100 100 99 98 96 98 98 98 99 74 71 66 71 68 72 88 93 97 97 98 96 97 99 97 100 82 80 96 100 55
51 12 41 87 98 97 90 94 94 98 97 100 86 98 94 97 97 86 95 93 98 99 98 99 99 89 78 70 64 67 64 75 94 96 98 98 98 99 99 96 100 89 56 81 99 80 47
54 11 23 83 98 96 96 97 100 97 99 97 77 96 91 86 100 99 100 99 98 98 99 98 98 62 68 70 66 64 68 71 91 94 87 97 98 100 100 92 98 87 77 100 96 63 53
51 9 32 74 91 90 85 96 97 98 98 96 83 96 99 80 92 98 94 82 79 99 92 97 99 85 77 60 70 71 71 72 80 92 84 97 92 99 82 100 100 98 90 92 71 59 54
44 8 20 43 73 93 92 97 99 98 98 99 80 99 98 97 98 99 98 100 94 93 98 98 99 86 83 83 85 82 91 88 80 96 100 78 79 94 69 64 71 57 52 55 54 52 57
43 9 54 83 71 89 86 98 98 98 98 98 94 92 97 98 97 98 97 85 80 92 99 98 99 80 93 99 99 93 98 94 85 86 93 92 94 86 85 76 64 59 59 54 58 46 52
49 12 29 72 95 91 88 97 96 95 98 100 98 100 99 100 97 99 100 85 87 94 98 99 99 91 99 100 100 99 98 98 94 94 84 90 100 95 86 77 75 48 53 42 53 55 54
65 25 16 49 82 94 88 98 96 98 100 100 100 97 99 99 95 99 94 88 88 96 98 99 99 99 98 100 95 99 92 90 92 98 99 99 100 93 86 96 65 56 60 44 57 50 46
72 56 19 39 81 40 78 97 98 98 100 100 97 100 100 98 98 100 98 77 87 97 99 99 99 99 98 99 95 99 97 89 92 85 84 98 98 99 99 96 83 55 58 51 44 36 41
77 18 18 31 62 25 74 93 95 98 99 100 94 99 100 97 97 99 100 100 72 95 98 98 99 99 99 99 95 96 92 97 93 96 97 98 90 81 84 78 63 59 58 56 44 42 43

GFSGBSN_700_rhum_018.txt.gz
RH
68 95 99 92 54 32 16 10 13 23 31 31 24 22 23 36 36 25 29 37 48 53 60 58 57 60 61 55 51 51 46 45 46 49 49 49 67 65 59 55 44 56 46 46 41 40 48
5 7 36 89 100 67 41 19 12 11 23 31 28 25 24 25 39 34 23 29 39 49 58 53 54 57 59 54 56 55 47 44 46 45 45 44 39 69 71 67 63 57 69 61 55 46 43
2 2 2 24 77 100 92 47 23 12 12 23 32 24 26 26 31 41 29 23 31 42 47 63 57 58 46 63 57 58 54 50 49 48 46 42 41 65 84 81 78 74 76 73 58 60 75
2 2 2 2 17 74 100 96 60 28 13 15 25 26 26 31 29 40 40 25 22 33 38 49 68 63 48 56 55 49 50 50 50 49 53 64 52 85 97 98 92 84 78 81 66 74 76
2 2 2 2 2 20 92 100 99 75 31 13 18 24 24 32 33 40 47 35 21 21 29 45 53 63 45 41 52 51 48 49 51 51 69 100 99 98 99 99 97 97 95 90 90 66 84
3 2 2 2 2 2 24 71 100 98 84 27 14 19 22 29 37 42 52 46 29 20 22 33 40 43 42 43 63 68 60 51 53 56 63 99 100 100 100 97 97 93 83 76 79 85 71
3 3 3 2 2 2 2 10 69 79 99 84 21 42 71 30 38 46 56 54 36 28 22 24 42 45 46 52 50 70 77 58 63 76 70 66 91 94 65 66 92 86 91 88 88 95 83
5 5 4 3 2 2 2 4 76 85 99 99 77 70 87 85 48 48 52 58 43 29 26 27 40 40 63 75 79 77 85 77 66 73 81 91 92 69 47 47 65 89 94 90 87 82 89
6 5 4 3 4 6 9 4 67 95 99 99 93 82 97 100 75 48 59 65 46 36 38 37 37 34 38 80 100 99 97 91 93 76 99 96 74 58 53 54 65 62 78 86 86 63 72
6 5 5 36 34 77 62 26 41 80 98 99 96 82 97 100 79 64 62 65 52 40 45 50 44 56 61 71 99 95 100 100 99 95 81 100 86 71 63 88 70 76 57 68 84 97 96
15 34 37 53 80 81 89 80 34 100 91 99 97 89 92 100 89 69 72 73 63 51 79 62 67 61 64 72 68 79 90 100 98 96 95 88 76 69 71 61 72 83 77 80 90 97 99
86 66 50 54 84 87 84 87 69 94 95 98 98 99 91 100 99 95 99 91 66 77 88 64 63 61 69 71 89 83 99 99 99 98 99 96 96 91 77 64 64 96 95 94 96 95 97
51 61 43 81 88 91 88 86 96 53 96 98 98 99 80 96 93 99 100 90 78 84 58 79 61 70 75 77 90 94 88 100 98 99 98 98 98 93 93 82 78 86 95 87 99 96 82
66 60 41 85 92 93 94 92 95 56 96 98 98 98 87 93 100 99 94 94 79 58 66 68 65 81 91 92 97 96 98 98 92 98 98 100 97 94 88 83 81 84 94 83 91 99 71
65 52 55 62 80 93 93 95 67 81 88 98 98 99 96 94 81 97 99 98 76 73 64 64 79 98 100 95 95 96 95 99 100 87 100 96 97 90 91 76 86 86 98 55 90 78 87
54 59 77 52 76 92 97 99 78 77 42 95 98 98 97 99 97 100 98 96 95 86 83 76 78 85 97 88 97 100 94 75 88 84 92 97 95 74 73 86 96 86 70 96 94 98 95
60 60 72 43 88 97 98 98 98 98 58 89 98 88 99 97 100 99 98 97 92 98 96 95 85 95 92 95 94 93 75 65 74 72 75 84 95 78 73 83 76 99 98 87 74 70 99
66 55 46 38 72 95 98 96 98 94 99 96 98 98 93 100 99 99 100 95 94 98 98 94 94 89 99 98 97 93 83 60 68 64 66 73 95 95 81 72 84 94 80 90 84 75 70
73 54 35 33 52 96 97 99 96 93 96 99 98 96 98 99 98 98 94 94 99 99 97 97 90 90 95 98 92 80 78 67 66 78 94 92 97 97 92 95 98 97 98 81 84 65 94
80 60 37 23 47 93 96 97 84 97 99 98 97 97 100 98 95 91 93 94 99 98 99 97 98 98 95 83 86 74 78 68 69 86 98 98 98 95 91 98 84 100 94 84 91 72 79
82 69 31 9 39 80 94 94 95 98 98 99 98 99 97 97 98 97 97 100 99 99 99 98 99 98 98 95 75 76 69 73 78 92 99 98 97 97 97 99 99 98 85 91 100 91 89
81 71 29 6 24 68 94 95 98 99 99 96 97 88 80 82 90 94 96 98 100 98 94 98 99 99 100 83 68 66 68 72 75 76 99 98 93 98 99 92 99 99 98 95 95 98 85
82 70 28 8 21 48 79 96 98 96 92 98 98 71 89 87 90 99 90 89 97 100 98 99 99 100 74 72 65 66 71 82 85 91 98 98 98 98 99 100 100 99 98 96 85 97 90
83 73 30 8 36 53 56 77 94 98 98 98 97 93 81 92 88 80 88 99 99 98 90 92 98 99 95 71 62 72 84 85 94 95 90 99 100 97 99 97 80 78 80 92 96 97 100
82 79 57 10 46 62 46 92 98 99 97 97 86 80 80 95 95 99 99 99 94 81 90 89 99 99 96 95 81 97 84 85 84 88 91 99 97 92 93 85 67 65 65 85 97 86 78
72 79 66 18 19 51 49 79 96 92 98 98 98 78 89 90 85 100 100 94 98 100 89 97 98 99 97 100 98 95 98 90 95 88 84 89 98 99 99 93 75 51 54 52 60 58 53
71 80 60 19 14 31 42 85 93 97 98 96 93 98 92 91 99 94 99 100 98 88 91 97 98 99 100 99 99 95 93 84 91 92 97 94 100 95 92 98 62 57 54 50 56 51 48
68 80 63 13 15 34 23 88 98 98 99 98 98 84 81 94 97 99 92 100 97 93 94 97 98 99 99 99 99 96 98 88 86 86 98 92 97 95 98 90 82 61 58 50 46 43 41
59 76 65 12 16 24 21 85 94 98 86 95 90 99 100 100 97 97 98 99 99 97 97 98 98 99 100 98 98 99 99 92 88 78 82 82 78 93 78 64 62 66 62 54 46 42 42

GFSGBSN_700_rhum_021.txt.gz
RH
2 2 3 9 45 67 94 93 56 26 12 11 27 34 28 25 27 38 33 30 39 48 54 60 63 59 56 55 50 54 52 50 47 43 42 47 53 63 57 59 55 53 43 51 53 44 44
2 2 2 2 3 30 59 100 98 78 32 13 12 27 33 26 28 34 41 31 31 42 48 57 60 52 50 54 56 52 50 52 50 49 45 44 44 60 71 72 71 56 57 50 51 50 49
2 2 2 2 2 2 10 90 100 99 78 36 13 14 28 32 29 31 39 41 30 31 41 48 51 59 49 62 52 52 54 55 54 52 48 48 53 56 66 76 81 68 60 61 62 50 53
2 2 2 2 2 2 2 14 67 100 100 84 42 13 21 33 28 36 37 46 38 29 34 42 48 43 59 59 47 50 55 56 57 55 52 50 55 75 87 97 98 95 87 73 51 55 56
2 2 2 2 2 2 2 2 8 94 100 99 82 69 36 29 32 34 40 49 46 33 29 35 40 35 38 52 51 45 51 58 54 52 53 56 72 83 98 99 98 98 96 93 89 62 66
2 2 3 3 3 2 2 2 2 49 100 97 99 89 98 85 70 37 45 51 48 42 31 30 28 32 31 39 52 58 57 57 54 56 59 62 99 100 98 98 95 99 98 93 87 74 86
3 3 3 3 4 4 4 3 2 2 55 97 99 96 89 80 60 84 51 53 49 46 41 31 35 34 49 48 50 57 52 57 60 59 61 66 96 97 93 98 96 94 95 96 99 96 77
4 5 5 4 4 3 3 3 3 3 4 72 99 99 97 87 97 96 76 57 49 54 46 35 28 27 26 29 43 65 61 69 68 64 63 80 72 70 94 99 95 89 93 97 96 89 83
6 8 17 32 17 6 15 27 19 7 7 16 98 97 98 90 97 100 96 69 64 61 50 42 40 38 38 58 72 60 68 85 86 88 75 69 74 60 71 67 72 69 72 82 86 77 72
10 30 51 50 41 34 75 80 84 79 55 86 82 99 98 98 86 99 99 86 71 56 64 49 47 54 45 55 70 60 72 94 100 96 94 98 90 82 75 79 70 96 78 69 65 87 92
38 74 75 62 46 54 78 97 88 84 89 96 99 98 98 99 86 98 82 91 66 63 85 59 62 60 66 75 65 75 81 100 100 100 99 95 83 71 73 63 69 98 75 86 84 80 83
66 70 71 71 62 67 93 95 96 84 80 69 96 99 98 98 95 96 97 86 70 82 92 73 74 74 69 63 71 79 87 100 99 100 98 88 92 97 85 78 80 94 92 96 97 99 95
72 65 67 68 71 71 84 95 90 94 76 73 62 98 98 98 92 98 95 83 96 97 62 70 63 58 59 79 86 85 97 99 99 98 99 99 98 100 96 88 90 97 99 97 98 95 83
80 84 78 58 73 83 68 84 93 98 68 88 50 98 98 98 96 99 94 93 86 67 59 65 61 68 70 76 90 100 98 98 99 100 98 98 96 84 92 88 86 82 84 95 90 93 80
85 80 81 59 83 49 72 95 98 90 78 73 62 99 98 98 97 98 97 99 72 69 59 55 64 99 100 100 100 100 99 96 95 99 100 96 93 84 73 83 90 98 98 72 96 97 97
81 81 81 61 49 64 93 96 96 99 86 95 89 82 98 99 99 100 99 86 76 70 69 70 74 82 100 99 99 99 92 64 74 76 94 93 97 76 74 94 98 97 91 96 97 96 94
83 81 80 59 30 61 79 96 97 97 95 98 93 98 98 97 99 98 98 93 82 84 85 85 86 89 99 98 96 94 79 61 63 62 74 100 99 92 91 94 88 99 99 95 89 78 91
85 81 84 72 19 49 55 96 97 96 97 86 93 100 95 99 98 99 100 97 83 90 90 91 95 92 99 99 93 92 85 64 57 70 85 86 100 100 86 82 76 76 67 89 86 82 74
87 84 84 64 14 32 42 90 97 98 99 96 97 98 98 98 99 99 97 96 91 92 87 89 91 94 98 99 97 96 78 70 74 62 75 78 97 96 92 95 96 97 97 88 76 84 69
90 87 92 77 11 22 36 73 94 98 98 96 98 97 98 98 98 83 85 95 88 92 95 96 96 98 99 100 99 89 80 76 71 66 91 97 97 94 90 95 95 99 99 96 96 96 78
94 87 94 82 8 15 30 47 96 85 88 82 98 96 94 98 98 86 97 93 88 94 91 94 98 100 98 98 99 84 65 65 73 84 97 98 98 98 97 97 98 96 99 99 99 87 84
85 75 96 80 9 15 30 36 95 93 95 91 98 96 98 94 62 97 97 93 90 99 97 94 97 99 99 98 94 72 62 67 74 89 98 98 97 98 94 100 100 99 99 100 97 100 83
84 78 97 69 13 17 32 53 90 97 98 98 98 85 89 84 88 95 97 99 89 100 98 100 99 99 99 99 98 72 78 80 94 98 99 99 98 98 98 100 97 98 93 83 70 77 86
84 76 94 78 29 24 35 37 94 97 99 96 98 98 94 97 97 81 90 95 96 97 99 99 99 98 88 100 71 67 71 72 78 93 96 97 99 99 99 99 97 97 97 90 81 79 84
80 87 88 88 34 10 20 62 96 100 93 97 95 100 96 84 84 90 98 98 99 98 94 86 86 97 98 100 91 79 79 84 77 78 81 92 99 99 99 99 90 72 82 97 95 81 90
84 85 80 88 15 8 19 65 97 99 88 92 99 98 98 100 98 99 100 99 99 96 98 88 83 98 99 99 83 94 91 86 98 90 91 89 96 100 96 98 82 68 59 78 100 92 80
78 80 64 88 18 10 19 56 92 94 99 93 98 92 99 98 89 89 86 86 96 99 99 85 96 96 99 98 100 98 88 95 96 89 91 99 89 94 98 96 66 68 65 74 96 57 55
73 77 62 79 35 10 18 54 96 96 97 92 98 96 97 82 100 93 88 99 97 95 95 92 97 98 99 100 99 98 82 93 87 87 88 87 88 91 96 94 80 65 63 61 50 48 47
57 71 63 68 61 10 16 56 100 100 98 95 98 90 93 96 98 92 99 99 99 96 99 98 98 98 99 99 96 98 86 98 89 78 78 88 85 80 78 70 65 69 66 55 45 46 38

GFSGBSN_700_rhum_024.txt.gz
RH
2 2 2 2 2 2 4 48 35 100 98 92 56 36 75 27 36 28 28 37 33 32 49 58 60 63 61 58 56 60 58 54 47 59 57 62 66 68 56 49 50 61 48 48 46 46 40
2 1 1 2 2 2 2 2 25 85 100 99 100 80 48 94 33 31 31 32 39 32 35 50 56 62 57 56 58 58 56 57 57 55 53 48 53 70 64 61 62 57 52 46 48 48 44
1 1 1 1 1 2 2 2 2 8 77 100 96 98 60 82 72 35 30 35 40 38 32 40 48 54 57 66 55 53 53 54 57 55 59 76 87 58 57 54 62 57 57 55 47 40 40
1 1 1 1 1 2 1 2 2 2 31 79 100 100 95 74 95 71 34 39 41 44 37 35 40 41 48 62 58 54 52 56 60 59 57 56 57 68 68 68 85 92 97 75 53 54 50
2 2 2 2 2 2 2 2 2 3 2 28 92 99 99 85 78 88 66 47 48 45 44 36 37 29 31 36 54 64 52 50 60 58 58 59 56 57 66 73 91 96 99 98 95 86 73
3 3 3 3 3 3 3 3 3 3 3 2 44 100 99 96 90 84 100 87 58 50 46 43 34 32 34 39 42 44 50 50 57 60 59 60 65 90 96 77 95 93 97 88 94 95 78
3 4 6 12 8 5 5 4 4 4 4 3 4 98 99 99 91 96 98 98 76 63 43 44 41 41 38 41 44 47 59 62 62 59 57 60 77 100 95 87 89 81 89 91 90 87 93
4 6 73 98 97 78 27 14 17 24 9 8 3 41 97 100 98 99 98 100 84 63 56 53 46 39 32 28 39 47 47 60 60 59 64 74 60 66 72 93 97 97 99 100 91 65 67
5 7 42 68 76 69 62 43 85 97 81 89 10 6 55 98 98 99 97 96 89 76 74 54 48 39 32 36 38 48 58 72 76 79 73 70 65 69 71 68 99 99 100 99 80 54 58
6 16 57 82 75 62 59 53 84 93 85 88 84 8 73 97 98 98 99 98 99 94 68 52 41 43 40 47 61 49 66 85 96 93 93 92 84 90 87 79 76 82 76 68 73 92 96
19 66 74 80 82 71 70 77 88 96 93 86 90 32 74 98 98 99 94 98 100 94 83 55 60 64 63 61 61 63 69 100 100 100 94 83 82 78 88 80 86 97 80 82 93 96 98
48 80 77 86 90 75 76 81 75 71 84 78 82 60 84 98 98 98 95 98 97 70 95 74 82 93 94 92 80 77 75 95 100 100 99 97 95 98 93 88 86 90 98 99 98 95 95
63 73 79 84 85 82 84 86 88 81 93 92 57 68 98 98 98 98 96 99 89 89 63 71 87 96 99 99 100 100 94 100 96 98 99 91 94 100 95 91 93 98 98 97 98 97 86
65 81 79 83 86 85 78 83 93 96 98 89 69 68 88 99 98 98 99 93 86 70 63 73 70 80 89 74 100 100 98 99 97 100 100 96 93 82 94 86 83 88 89 94 93 94 81
79 83 83 87 84 76 57 73 95 97 94 89 71 66 52 98 97 98 99 93 71 64 57 59 72 70 77 94 96 100 99 100 100 100 99 98 95 90 81 70 92 98 98 74 97 97 98
68 84 80 88 85 61 49 59 94 97 98 84 92 69 73 98 97 98 99 80 74 68 65 62 52 71 81 98 93 99 98 56 72 86 100 99 96 84 73 78 99 99 98 99 98 96 94
74 90 86 87 87 57 20 51 56 98 97 91 98 71 96 98 98 98 99 87 79 69 70 66 73 76 85 91 100 100 77 55 55 54 74 99 97 92 97 97 72 99 100 97 96 97 86
83 91 88 87 83 52 16 40 50 96 97 100 99 94 65 97 97 98 100 97 83 77 79 82 85 84 92 92 99 100 90 70 64 63 64 86 97 94 93 72 80 91 74 92 88 88 85
88 95 82 88 77 46 22 37 44 96 97 100 100 99 97 81 97 98 96 91 82 86 90 90 85 90 89 97 95 91 87 68 78 78 67 71 98 98 93 95 100 96 88 95 94 79 70
89 95 85 95 83 32 31 38 38 94 98 77 80 92 98 98 98 87 85 100 94 87 93 93 94 100 93 95 98 89 76 81 80 75 83 84 90 93 93 88 97 97 95 97 97 96 78
92 94 82 97 79 18 28 32 48 98 95 64 72 97 91 98 98 98 91 77 80 93 91 85 96 86 91 100 97 93 96 81 80 82 94 95 95 92 93 99 98 98 98 97 97 80 91
94 89 78 96 80 19 36 26 69 98 79 55 88 94 96 86 99 100 90 88 84 82 81 88 92 94 100 100 98 92 80 74 71 82 92 98 91 96 95 97 99 100 99 99 95 87 79
92 88 91 84 82 22 27 26 95 97 100 94 98 96 90 96 84 91 92 91 87 93 94 98 99 99 97 96 98 98 99 89 84 96 100 100 100 98 92 98 99 98 99 99 98 93 86
93 93 92 85 83 15 16 40 98 98 97 100 98 99 98 98 97 89 87 97 91 93 97 99 100 97 97 98 99 95 79 74 76 72 94 93 100 98 97 99 98 92 99 82 73 70 80
91 90 95 78 84 16 16 65 100 98 100 98 98 98 97 92 100 99 97 96 93 97 100 97 92 89 97 99 98 86 64 62 54 57 63 78 100 98 99 99 92 75 88 93 98 78 80
79 70 84 79 82 13 11 77 93 95 96 99 97 99 98 91 92 86 81 89 95 99 98 97 97 86 96 98 98 97 95 82 88 94 86 99 100 99 98 99 93 80 73 95 99 88 84
82 56 67 75 70 34 9 60 96 100 100 100 98 99 99 99 90 88 84 85 95 99 97 99 96 95 98 99 98 95 90 87 85 89 91 98 98 97 99 94 84 80 65 88 78 59 64
82 49 47 78 61 32 8 49 100 100 99 99 98 97 98 96 89 88 91 97 91 95 99 96 95 98 100 98 99 91 87 80 80 81 87 88 83 82 89 95 83 78 67 67 56 52 47
65 56 48 64 61 32 7 38 100 100 99 93 88 82 89 78 79 100 100 92 100 96 96 98 98 98 98 99 90 91 98 91 89 86 81 82 79 83 83 76 73 80 75 62 51 48 40

GFSGBSN_700_rhum_027.txt.gz
RH
1 1 1 1 1 1 2 2 2 3 17 45 100 100 94 67 88 56 40 32 34 37 34 38 50 56 57 60 61 63 57 54 53 55 64 66 66 55 54 50 48 48 40 40 37 32 31
2 2 1 1 1 1 1 1 1 2 2 7 98 100 100 99 67 85 54 37 32 40 36 35 44 46 56 60 60 63 60 61 64 56 56 60 59 80 68 60 64 60 49 44 42 39 41
2 2 1 1 1 1 1 1 1 2 2 2 25 76 99 98 94 76 81 46 40 37 40 37 38 41 46 69 59 60 60 58 61 60 59 56 64 76 71 66 69 67 60 54 40 38 46
2 2 2 2 2 2 2 2 2 2 2 2 2 11 59 100 100 85 84 78 49 43 41 41 37 34 35 51 64 61 58 58 59 61 61 61 94 98 94 78 73 74 69 58 49 41 43
3 2 2 2 4 4 4 4 3 2 2 3 3 3 14 98 99 95 87 100 78 54 47 43 40 36 32 27 47 59 64 57 58 64 66 64 65 70 74 72 71 75 85 77 68 62 59
3 2 3 4 14 19 21 14 9 6 4 5 4 4 4 65 99 99 100 95 93 90 86 42 43 40 37 34 32 43 63 65 57 63 67 65 68 68 67 58 83 77 86 88 92 79 66
3 3 4 7 79 85 94 72 42 33 20 62 26 5 4 35 99 99 99 100 97 94 73 46 43 52 34 33 34 39 48 52 56 64 68 68 68 63 58 65 76 80 88 95 96 83 76
3 4 4 8 46 61 85 70 51 51 64 99 96 76 9 11 96 98 98 99 86 78 67 55 54 46 42 38 45 50 49 55 57 58 65 70 67 59 69 87 98 100 99 96 87 87 83
4 4 6 8 40 75 74 62 66 78 66 92 97 94 57 5 66 98 98 99 99 97 88 70 61 52 48 45 42 42 51 50 56 66 63 61 59 67 74 80 94 89 97 91 96 91 72
4 5 7 13 68 71 69 65 73 87 88 92 94 93 92 17 69 98 99 99 96 99 90 64 50 47 48 44 39 40 42 59 73 71 77 80 72 76 82 88 80 84 78 81 89 98 93
5 6 12 50 78 71 69 76 85 81 74 72 72 77 86 82 65 96 98 99 99 99 72 51 56 60 48 51 55 47 59 82 86 81 77 73 78 80 86 79 92 97 95 88 88 95 100
5 7 34 66 79 72 75 83 67 82 79 86 81 82 72 82 87 71 97 98 98 93 83 75 74 85 75 74 87 69 75 95 99 99 100 96 98 99 95 86 89 94 98 98 99 98 96
6 9 66 69 77 75 76 55 62 78 96 97 97 83 56 60 78 97 98 98 96 74 61 79 90 100 100 100 99 100 100 99 93 100 100 97 93 98 98 100 96 98 98 96 96 97 82
6 13 50 76 80 78 77 54 62 74 97 90 84 74 46 51 70 94 98 98 89 66 68 79 85 99 98 99 100 99 99 99 99 99 98 91 88 76 96 74 81 94 90 88 90 87 73
10 37 74 78 81 78 71 50 39 73 97 88 85 65 67 41 100 92 97 98 67 57 51 57 100 100 99 99 94 100 97 100 99 99 98 94 91 91 85 92 95 99 100 86 97 88 97
31 90 83 86 79 78 67 34 40 80 96 97 92 96 84 39 96 97 97 88 69 53 53 57 76 81 88 83 84 97 87 79 81 91 99 95 88 78 73 84 89 98 98 98 98 93 86
98 93 85 89 82 76 60 21 87 59 96 95 97 97 80 57 98 97 96 91 64 68 66 60 60 66 77 76 87 90 86 68 62 62 99 100 99 79 80 75 72 99 98 98 95 84 78
98 92 88 90 87 76 73 17 44 59 97 97 97 99 83 95 98 97 97 88 68 68 70 66 67 78 82 85 90 99 92 73 64 66 69 75 100 97 69 60 71 85 94 93 97 84 96
63 87 86 87 88 73 38 24 33 47 95 93 98 94 100 95 96 96 97 92 74 68 70 76 80 81 84 92 94 98 90 86 85 73 74 75 96 98 79 86 84 96 84 95 97 98 95
62 86 85 91 89 82 14 27 34 78 98 92 98 89 91 89 98 95 90 86 78 81 77 83 82 86 90 97 95 96 87 82 82 83 88 88 93 84 82 89 98 98 97 97 98 97 82
94 90 78 88 82 78 12 32 51 98 92 98 93 85 97 98 94 95 87 91 89 88 92 90 90 85 97 99 99 98 82 88 86 86 89 99 94 87 88 91 98 98 98 98 97 85 96
91 81 74 87 76 68 10 26 65 99 90 100 89 92 100 89 99 96 92 82 86 70 77 75 82 83 100 99 90 88 92 93 82 81 91 100 98 96 90 94 99 98 99 100 100 98 96
82 84 70 85 76 52 8 26 95 99 97 75 76 99 93 100 99 90 81 78 78 76 91 86 94 99 100 94 93 93 98 97 98 95 90 100 100 98 95 84 98 98 96 100 98 97 90
40 55 66 80 69 58 9 45 96 100 100 89 99 99 100 97 95 90 87 82 83 92 95 94 100 100 95 96 89 92 94 99 100 87 85 94 95 99 97 96 98 99 99 100 86 87 85
29 60 39 64 61 26 15 68 96 92 92 87 99 98 95 90 96 90 85 85 95 96 97 99 98 100 99 96 99 99 85 72 54 62 71 73 86 98 98 99 83 97 98 99 99 98 99
10 27 26 40 52 20 15 73 84 88 96 98 97 98 96 100 84 95 84 84 91 93 97 97 98 95 99 98 99 97 74 78 85 98 100 99 100 100 99 98 97 76 83 94 100 80 79
4 8 24 36 46 26 9 56 98 92 97 99 96 99 100 94 92 85 71 83 94 99 96 93 97 96 93 98 98 98 92 85 84 89 88 97 99 96 98 99 76 75 73 80 71 71 79
4 5 7 18 24 36 14 27 95 96 85 99 96 99 99 98 90 80 83 88 91 93 91 96 97 90 98 98 98 96 91 86 84 77 83 86 85 86 95 96 86 78 74 70 60 54 49
5 4 6 10 14 29 19 19 88 99 89 100 98 99 97 96 93 90 92 84 89 92 98 99 97 92 98 99 99 99 99 95 88 83 82 85 79 84 83 72 70 69 77 71 55 48 54

GFSGBSN_700_rhum_030.txt.gz
RH
3 3 2 2 2 2 1 1 1 1 1 2 2 27 53 99 98 81 88 65 44 34 37 36 47 62 62 62 60 56 54 50 54 87 94 70 68 67 73 60 52 50 40 33 32 30 30
5 4 3 3 2 2 1 1 1 1 1 1 2 2 8 98 98 98 92 96 72 38 38 38 42 59 59 61 62 63 56 60 58 59 76 74 74 88 88 69 69 57 44 39 36 32 36
6 5 4 3 2 2 1 2 2 2 2 1 2 2 3 65 98 99 97 100 78 52 42 40 39 48 50 68 60 58 60 63 66 83 64 72 76 100 97 95 76 63 52 48 38 36 44
8 7 5 4 2 2 2 7 7 6 3 2 2 3 2 4 60 98 99 99 91 81 50 45 40 41 42 52 66 62 59 62 65 77 92 92 66 92 92 85 71 56 62 71 53 39 41
10 8 6 4 3 9 16 38 57 56 28 11 6 5 3 4 8 68 99 98 99 90 64 49 41 41 42 37 54 56 60 60 64 68 68 76 88 98 100 90 95 95 78 88 83 55 70
12 10 7 4 3 15 94 90 94 83 58 32 26 26 14 4 4 39 96 99 98 100 95 74 43 45 42 40 36 40 57 71 64 65 69 70 70 78 74 83 70 69 87 81 79 83 58
12 11 7 4 3 3 9 55 73 74 66 70 65 90 95 13 5 100 90 98 99 99 95 53 48 48 37 40 41 36 49 67 71 71 72 73 76 58 52 58 83 78 94 92 94 80 79
12 10 6 4 4 9 36 79 60 75 76 80 80 90 97 96 10 97 96 98 98 86 87 56 60 50 46 40 40 44 54 61 62 72 78 72 64 57 56 59 77 100 99 87 86 89 82
12 8 5 4 6 60 84 82 70 84 78 84 89 87 89 98 53 77 98 98 99 99 92 73 57 58 54 52 52 58 56 61 70 70 63 72 68 53 57 74 98 100 100 100 95 87 85
12 7 4 8 56 89 83 84 74 86 77 68 86 92 77 82 73 36 98 98 98 98 98 84 62 52 57 52 53 51 66 78 72 63 71 80 79 68 78 90 86 90 95 97 99 96 84
11 6 6 16 86 93 90 84 90 96 70 89 81 92 71 84 88 65 63 96 98 98 94 68 61 55 53 58 53 49 56 70 76 64 63 70 66 76 88 68 89 97 96 99 99 98 96
9 5 29 92 91 95 87 79 86 59 64 83 96 98 93 61 78 64 73 98 98 97 81 71 69 62 54 57 63 57 64 75 91 89 85 96 82 93 98 83 91 94 98 98 100 100 92
6 17 96 92 93 92 79 74 60 57 61 76 98 92 96 64 67 77 76 97 97 94 77 88 83 94 81 87 98 80 89 99 95 100 100 97 97 83 93 98 94 99 94 77 89 93 64
6 70 97 94 94 79 75 70 57 50 39 96 80 75 84 78 76 96 90 98 97 86 96 91 100 99 98 95 99 99 98 96 100 100 93 97 85 79 90 89 96 100 100 71 65 52 43
7 88 97 95 91 78 83 66 47 31 79 97 96 81 78 60 56 95 96 98 96 65 52 91 99 100 100 100 94 99 98 99 99 98 97 99 96 74 62 75 89 95 99 84 97 81 80
9 84 95 94 79 86 82 75 37 31 83 96 95 96 78 71 40 90 98 97 88 60 45 64 99 100 100 98 97 100 100 84 99 99 95 99 98 76 79 76 82 93 96 95 97 77 65
10 98 92 83 85 89 82 80 22 32 84 97 98 94 86 88 76 98 97 96 66 66 56 69 69 90 96 90 89 96 95 68 56 61 97 99 95 92 84 85 88 96 98 97 90 92 69
18 96 86 79 93 84 84 20 26 40 96 86 90 97 79 91 99 68 93 97 82 83 70 67 67 66 71 78 77 94 81 75 61 57 73 69 97 100 80 56 67 81 86 98 97 84 95
18 98 81 83 89 75 33 19 34 69 97 96 97 100 100 93 95 94 96 96 80 70 71 65 74 77 77 78 86 94 88 83 75 72 80 93 97 95 72 72 80 97 81 93 98 98 96
8 80 81 83 93 41 12 23 44 97 92 92 98 98 97 100 94 89 96 93 70 74 68 71 74 77 82 86 86 95 85 84 80 86 95 93 99 80 67 57 71 100 96 98 98 98 81
4 37 66 71 95 26 10 22 89 96 99 85 94 73 62 96 99 96 96 92 80 68 71 79 81 80 83 88 99 98 94 94 90 87 88 96 96 82 67 74 82 87 97 98 99 96 98
3 12 22 54 47 17 14 45 97 90 100 84 100 100 92 75 95 94 95 94 77 70 69 74 88 84 83 96 97 93 87 89 94 92 99 100 99 85 79 78 97 99 95 100 99 100 100
3 3 10 24 21 13 20 61 91 72 78 59 65 92 90 81 96 96 80 89 81 75 70 74 80 90 86 93 98 99 99 98 99 94 88 95 99 98 97 72 88 99 99 100 99 100 100
3 3 3 8 16 13 25 70 87 76 77 85 94 98 98 94 92 84 80 78 76 84 80 82 84 96 90 98 99 98 99 98 100 99 100 98 99 99 98 93 94 95 99 100 99 98 100
4 3 2 3 9 10 24 62 80 89 96 96 97 95 92 87 85 92 81 80 81 85 91 90 89 94 98 98 98 99 95 92 70 60 91 99 100 98 94 98 83 96 98 99 100 100 100
4 4 3 2 3 10 19 48 73 75 99 95 98 98 92 80 85 78 78 75 84 94 94 90 91 96 100 97 97 98 85 82 94 98 92 91 95 99 94 97 78 78 92 88 93 90 87
5 4 3 3 2 5 12 23 77 79 100 100 97 99 99 95 95 89 77 75 84 86 84 96 96 98 99 99 97 99 94 83 91 98 95 96 99 99 99 97 77 70 80 75 70 74 82
5 5 4 3 4 4 9 16 67 80 100 100 98 98 100 96 90 87 73 80 86 92 95 92 97 96 99 100 100 98 96 97 85 76 85 86 97 98 99 96 87 72 76 84 74 64 82
5 5 4 4 5 4 8 11 55 77 96 98 92 100 99 98 92 93 91 95 89 89 87 87 94 96 98 99 98 98 98 96 83 87 82 95 83 86 83 77 76 76 68 73 60 56 63

GFSGBSN_700_rhum_033.txt.gz
RH
6 7 7 7 6 5 4 3 3 3 2 2 1 1 1 2 24 91 99 89 99 75 42 36 36 46 65 68 68 56 54 55 61 84 90 79 79 92 85 75 77 88 72 69 78 83 55
8 9 9 9 7 6 6 5 5 4 3 3 2 1 1 1 2 75 97 88 96 94 60 38 38 45 66 73 66 66 63 60 59 82 98 97 97 100 98 94 82 86 87 80 80 63 43
10 11 10 10 9 8 6 5 4 5 4 4 4 2 2 2 2 4 98 100 95 99 92 47 41 44 60 71 65 67 69 66 61 58 83 100 100 99 93 84 89 70 70 74 50 34 66
12 13 13 12 11 8 5 7 8 18 36 44 36 9 3 3 2 3 35 99 98 99 96 76 45 42 51 54 63 68 68 69 70 66 72 78 88 100 98 100 91 74 89 79 64 66 76
12 14 15 14 12 8 5 19 74 89 91 79 63 33 19 9 5 3 4 78 99 99 100 88 53 45 51 44 52 68 71 68 68 70 75 94 97 96 95 99 99 94 69 66 62 72 78
13 16 16 15 10 6 4 34 98 99 85 75 70 69 61 58 47 6 5 52 100 98 99 100 76 51 46 44 42 56 71 68 68 67 75 93 100 100 98 98 73 61 66 65 61 62 75
14 17 17 13 7 4 39 98 98 86 87 83 85 76 69 72 90 83 9 85 96 98 99 97 54 44 47 38 42 43 68 73 72 82 83 72 91 92 83 86 78 68 74 66 61 69 73
16 18 15 8 6 38 99 97 96 92 85 93 90 85 80 80 92 96 86 100 98 98 98 98 62 52 44 40 46 48 64 73 96 96 100 92 80 87 83 83 82 81 78 71 67 67 68
18 17 10 7 32 96 98 94 92 91 94 94 85 68 86 76 79 82 92 99 98 98 98 96 74 58 55 45 60 52 56 81 97 100 100 98 85 70 88 89 90 84 82 79 81 80 74
19 13 8 54 95 97 88 89 89 88 92 91 68 91 94 73 67 72 71 97 97 98 98 99 90 65 54 58 56 58 63 82 99 99 99 97 87 76 80 90 86 78 74 79 82 83 65
18 8 32 97 95 87 85 84 80 90 86 63 75 90 97 97 80 84 68 82 98 98 96 97 89 82 52 59 80 68 79 86 100 98 87 88 69 98 98 90 90 90 94 91 87 83 90
12 6 63 96 90 85 83 81 77 81 55 57 84 96 98 95 93 90 73 84 97 97 97 100 98 79 62 94 73 75 91 87 99 100 100 91 99 99 98 95 98 97 95 97 95 94 87
8 7 70 90 84 84 76 87 75 53 62 76 74 94 84 86 91 89 79 98 97 97 98 100 99 92 80 100 100 74 98 98 87 98 99 100 99 100 86 99 99 100 93 70 82 91 64
6 8 89 89 82 80 85 80 71 42 39 60 81 96 96 89 90 73 93 98 97 97 98 99 100 99 99 100 99 99 100 96 100 97 95 98 88 95 93 95 92 100 95 67 58 47 39
5 13 97 88 83 91 79 73 52 31 34 83 89 93 83 90 81 73 75 95 98 93 96 100 99 99 100 98 93 100 100 100 99 100 94 92 94 83 96 95 96 98 98 67 84 70 66
5 17 97 87 89 87 80 25 24 30 39 97 98 97 89 62 81 97 95 86 97 100 70 99 98 97 100 100 100 100 95 97 98 100 98 96 95 87 99 99 98 98 92 93 97 81 60
5 11 92 92 95 66 26 23 27 37 61 76 91 95 87 56 74 100 80 84 97 99 97 97 97 96 97 99 98 99 98 84 94 95 100 99 93 96 89 68 83 96 100 95 91 92 63
5 4 48 84 87 31 19 22 29 48 87 97 85 96 92 54 76 96 94 98 97 97 87 95 99 92 93 94 92 87 87 86 60 79 100 99 99 96 86 69 78 82 96 98 97 66 91
6 2 18 62 45 20 11 20 44 85 95 82 76 97 89 91 95 96 97 98 95 94 87 92 94 92 90 93 93 94 94 76 67 58 94 96 98 88 85 85 86 88 85 88 98 98 96
7 2 2 16 21 13 19 45 86 100 96 94 92 97 94 94 78 85 97 96 93 89 78 71 78 76 81 98 93 99 94 83 73 71 96 99 99 82 72 68 79 89 92 96 98 98 84
9 4 2 5 9 17 34 66 84 85 84 76 78 90 91 84 78 73 93 96 96 89 78 77 80 89 91 96 96 92 100 82 79 80 88 96 92 100 97 93 80 81 91 91 99 97 98
10 6 2 2 5 22 42 67 73 69 71 70 68 98 78 74 73 95 90 91 99 74 80 78 80 82 77 98 95 100 100 89 99 94 94 96 99 100 89 71 94 88 94 99 99 98 99
12 8 3 1 2 22 42 54 57 69 61 67 71 83 97 94 92 99 82 93 98 81 78 73 80 84 84 84 92 93 94 97 98 98 98 97 98 97 85 76 89 93 99 99 99 99 99
14 9 5 2 1 7 35 51 58 67 67 75 82 90 93 98 99 99 94 83 83 80 86 70 72 83 91 88 90 95 94 98 97 97 98 96 95 93 95 90 83 85 97 93 97 96 98
15 11 7 2 2 1 15 38 60 70 76 71 77 86 91 99 99 99 100 95 76 76 87 85 80 86 89 94 91 79 89 97 77 93 98 98 100 99 96 81 74 82 86 86 86 88 97
16 12 8 3 2 2 2 24 48 63 83 95 96 89 86 95 97 99 91 82 96 88 80 87 90 84 91 95 98 95 89 75 93 100 92 99 99 100 90 94 74 68 74 82 82 96 82
16 12 8 4 2 2 2 8 40 60 91 93 93 99 96 99 89 81 100 98 87 82 82 80 89 90 93 99 98 96 93 85 78 79 98 98 99 98 98 97 79 73 76 77 74 73 85
14 12 8 4 2 4 2 4 31 61 99 99 99 96 96 98 96 94 91 89 76 83 88 90 94 88 99 99 96 93 99 97 88 82 100 95 98 98 99 96 88 72 78 83 75 68 65
15 11 8 4 3 6 4 3 18 56 95 100 99 100 100 93 98 95 83 82 88 97 99 98 95 90 93 98 93 98 98 98 93 73 87 94 83 88 87 85 84 82 78 70 70 59 64

GFSGBSN_700_rhum_039.txt.gz
RH
7 7 7 7 9 13 16 17 16 14 13 16 20 20 18 15 8 4 3 2 36 75 62 91 100 57 35 33 33 41 62 61 60 66 81 55 28 37 65 39 46 69 49 62 55 42 58
7 7 6 7 12 16 18 16 13 14 20 56 95 98 96 43 19 9 4 3 2 11 45 98 100 93 43 32 41 40 64 61 79 88 98 91 84 32 52 60 82 80 83 76 73 58 58
6 6 6 11 15 18 15 12 14 40 99 100 98 97 90 75 55 22 6 3 3 2 47 99 100 99 58 37 48 40 60 63 60 76 94 98 97 69 75 72 87 85 79 70 58 42 40
5 5 10 15 18 14 14 18 54 100 96 91 85 91 94 77 79 77 62 18 6 3 37 100 99 99 92 46 42 46 62 70 65 61 80 99 95 91 79 87 80 81 82 75 30 40 37
5 8 15 18 14 16 41 79 95 89 82 84 89 91 85 82 85 78 64 59 21 4 32 98 99 91 97 61 36 53 69 71 70 65 83 99 98 99 95 88 82 82 74 64 61 53 60
6 13 19 15 14 51 100 93 92 84 86 88 86 84 88 88 83 75 83 65 76 7 27 97 99 100 88 68 36 48 71 74 73 82 76 95 100 100 100 100 92 78 83 74 72 66 70
10 17 17 12 16 90 91 88 88 88 80 78 74 80 88 81 69 73 73 83 82 22 36 98 98 100 82 64 42 41 62 70 74 78 94 96 100 98 86 76 72 76 85 92 68 68 70
13 19 15 11 28 71 88 85 74 78 78 67 75 79 74 67 88 92 82 80 82 87 85 99 98 99 91 54 39 59 63 76 76 77 79 99 100 85 87 84 78 82 97 87 69 64 66
17 19 12 8 25 68 91 86 84 76 71 56 65 62 65 87 86 88 84 73 73 97 99 92 98 99 95 63 47 49 59 70 76 94 98 93 95 98 97 86 92 88 86 77 71 54 44
20 19 11 7 40 69 94 83 78 70 54 47 53 50 60 92 80 94 81 69 65 94 97 98 98 99 99 70 56 63 84 77 99 98 93 92 88 86 95 87 87 84 78 78 77 72 65
21 17 10 7 46 50 69 66 96 42 40 42 47 47 50 81 97 96 96 66 98 95 97 99 98 99 97 73 53 95 100 98 92 92 95 89 90 89 90 74 89 86 83 79 77 75 79
21 16 8 5 30 36 32 30 42 34 36 39 37 37 90 96 97 91 85 76 96 96 96 98 99 94 93 93 77 81 99 93 90 88 88 87 87 91 89 83 84 88 86 79 72 81 93
22 15 6 2 12 23 24 25 28 30 32 33 35 57 99 97 95 83 74 83 93 97 98 99 99 90 84 98 96 92 100 90 88 95 99 92 88 94 85 80 89 94 85 88 86 89 88
22 14 7 2 11 19 15 18 23 26 33 51 87 96 93 93 82 72 71 68 94 94 98 98 99 95 97 94 99 100 100 93 89 86 92 88 73 83 69 90 81 90 81 75 91 98 81
22 14 8 2 12 22 27 44 86 88 93 94 89 92 94 86 90 85 89 80 96 98 98 98 99 97 99 93 93 99 98 95 85 78 72 84 86 93 98 90 88 91 91 86 87 76 86
23 16 10 1 7 32 73 85 88 92 89 77 74 88 86 81 77 85 98 95 94 98 98 96 95 92 98 96 88 96 97 95 91 78 86 89 83 96 89 97 95 86 80 93 95 96 93
24 17 12 2 7 46 71 86 81 72 86 80 82 73 99 79 92 97 90 96 97 98 97 97 95 97 92 96 84 87 82 90 78 72 93 90 84 96 93 92 80 96 95 92 89 90 93
24 19 14 5 4 42 67 85 76 75 74 71 62 65 61 57 63 78 74 91 96 98 94 94 82 74 84 86 86 82 77 93 95 90 94 91 85 86 82 76 82 85 76 88 83 65 87
24 21 15 10 1 35 57 67 66 73 65 62 64 93 98 85 96 100 64 97 98 94 95 94 87 82 80 78 77 86 94 92 95 98 85 90 90 88 92 81 89 93 94 93 90 80 85
25 23 18 14 4 14 48 56 58 75 65 57 66 88 97 92 84 80 91 98 99 100 95 83 87 82 83 89 89 98 89 89 98 96 94 88 90 71 78 92 88 84 82 84 92 98 86
24 25 20 17 10 2 43 49 52 65 68 55 48 53 69 90 96 91 89 98 100 97 92 96 96 90 87 89 91 93 97 89 87 95 97 93 86 86 75 73 78 75 66 70 82 76 98
22 26 22 19 14 4 11 47 46 59 67 66 70 47 58 75 100 93 83 92 98 98 97 95 88 94 90 96 90 94 91 79 72 78 95 89 86 88 72 72 71 79 74 86 89 92 98
20 26 24 21 17 10 1 23 50 52 61 69 60 41 48 66 98 98 94 90 90 92 100 91 95 82 90 86 93 91 93 88 81 86 83 92 90 87 78 71 83 84 80 85 86 95 100
18 25 25 22 19 14 3 1 30 56 66 72 67 56 53 54 85 84 97 93 82 77 79 85 79 80 77 81 92 98 97 94 94 90 92 95 93 90 78 78 94 80 76 77 84 86 89
17 22 24 21 19 17 6 2 2 34 57 72 74 82 78 70 82 95 100 92 82 76 73 68 62 71 75 83 83 88 92 97 93 98 99 97 99 86 90 87 72 83 72 78 87 78 80
17 21 23 20 18 16 7 2 2 10 54 76 88 89 94 88 88 93 94 88 96 98 85 85 79 82 85 86 86 96 97 93 94 92 99 98 97 98 97 96 87 77 66 85 89 74 80
18 20 21 19 17 13 7 4 4 5 61 85 91 100 100 100 91 89 92 95 94 92 95 98 81 87 87 84 86 85 82 86 83 96 92 100 99 94 87 97 70 72 86 93 89 82 79
19 18 21 18 16 11 6 13 11 5 65 100 100 100 99 100 93 93 96 92 92 98 97 93 92 87 84 96 85 82 83 91 86 90 92 88 89 96 98 97 83 86 91 97 88 78 69
21 18 22 19 16 9 10 25 27 5 60 100 100 99 94 96 97 92 100 100 97 100 94 94 92 93 84 92 88 90 95 89 94 93 94 95 77 82 80 68 74 87 87 90 82 74 59

GFSGBSN_700_rhum_042.txt.gz
RH
6 7 8 8 9 12 18 18 15 14 18 63 100 98 96 94 93 59 33 11 5 2 36 100 91 99 89 45 30 36 41 38 38 70 29 21 24 25 24 29 33 42 42 38 30 31 41
6 7 7 8 12 18 18 14 13 19 57 94 91 89 96 97 92 94 86 19 10 4 26 97 98 100 100 55 36 35 59 67 55 76 66 47 34 31 32 28 43 53 39 44 46 35 30
8 9 8 12 18 18 14 18 49 86 93 89 83 83 83 86 77 78 74 68 30 7 3 86 74 100 100 92 39 37 61 69 82 85 87 86 75 66 42 49 69 73 82 77 49 32 41
11 7 11 17 19 13 9 36 83 94 91 85 85 86 81 84 83 83 79 69 61 37 5 24 67 98 98 99 53 35 56 66 65 88 96 100 99 73 56 80 83 86 85 81 52 42 38
9 9 14 20 15 8 15 44 77 84 78 80 72 75 72 77 86 83 79 66 52 48 12 4 49 99 99 92 64 42 62 67 69 67 96 100 99 92 86 74 78 85 88 76 49 45 45
9 11 18 18 13 4 15 53 95 73 67 73 64 66 68 79 72 76 72 65 70 65 13 6 95 99 98 86 76 56 75 78 74 76 81 96 98 100 94 89 89 77 67 68 68 58 71
10 14 20 16 8 5 28 56 97 81 74 69 56 63 79 64 69 82 79 79 72 73 14 43 98 99 98 89 85 51 81 77 76 93 85 93 94 99 99 97 84 92 80 81 83 82 72
10 18 20 14 4 16 38 49 67 78 84 56 54 59 58 59 84 86 84 97 80 92 18 100 99 99 80 84 65 57 80 79 84 98 97 92 100 100 99 95 89 90 86 80 74 80 78
12 20 20 13 3 20 23 40 34 57 50 41 43 48 49 69 88 89 93 63 65 90 58 96 97 98 83 81 52 45 83 79 71 80 94 99 92 93 97 92 83 86 85 85 85 72 66
14 21 19 11 2 13 19 24 28 45 41 42 45 46 52 62 85 94 89 82 72 92 87 86 98 100 100 83 67 60 91 77 93 88 94 95 94 94 92 85 84 81 83 85 84 78 64
16 21 18 10 2 15 22 19 24 28 32 36 41 39 42 80 100 99 98 92 69 96 98 60 97 99 99 84 63 95 98 98 89 94 95 91 96 90 87 87 90 90 84 78 78 79 79
17 21 17 10 2 18 34 32 22 28 33 34 36 38 85 97 94 99 96 90 89 96 95 100 90 99 98 90 77 98 99 97 100 99 94 91 93 90 82 84 82 92 87 78 78 76 81
18 22 17 11 2 18 49 70 79 78 89 97 97 93 97 94 97 100 93 100 83 96 98 100 98 99 93 92 86 93 95 95 95 97 98 97 89 89 85 90 86 90 84 78 86 96 79
18 23 18 11 3 35 57 77 71 86 96 80 80 93 93 96 88 95 88 86 95 96 97 99 97 97 94 91 98 98 93 98 92 86 92 95 96 85 80 78 67 87 78 65 74 97 87
18 23 19 12 3 43 59 65 69 90 90 80 86 90 86 85 82 90 86 84 96 96 98 97 98 96 98 92 97 96 97 96 94 82 76 91 84 93 88 77 75 87 98 84 87 87 91
17 24 20 14 2 42 50 57 61 71 72 75 80 72 72 70 73 90 95 95 97 98 98 89 96 96 100 92 93 90 96 98 86 78 69 73 88 95 90 92 95 80 81 89 84 91 88
15 24 22 15 3 37 42 52 40 45 50 59 62 36 65 73 82 95 96 93 98 99 98 96 89 99 94 89 83 93 85 87 81 80 84 84 76 99 91 93 85 94 94 90 82 82 92
13 23 24 18 6 34 40 55 24 43 65 75 68 47 55 68 81 90 96 98 97 97 89 87 89 75 84 83 89 87 84 86 83 74 84 84 84 87 98 89 88 93 83 80 78 66 98
17 21 26 20 13 18 34 46 30 32 53 66 42 37 40 57 73 87 98 94 96 91 85 86 79 76 77 72 83 85 82 85 77 86 85 85 83 84 86 84 83 92 88 94 88 84 89
33 17 26 24 18 3 36 38 55 42 47 56 59 64 67 72 82 96 98 99 96 92 90 74 72 75 79 73 83 87 84 94 93 95 88 84 82 69 77 80 77 78 70 78 92 92 88
48 16 24 26 21 14 10 38 41 57 50 48 46 67 80 91 80 100 99 100 99 99 90 80 81 78 83 94 92 97 92 90 96 93 93 93 88 86 78 85 92 82 82 86 90 76 95
53 20 22 27 25 19 6 22 41 45 58 54 44 59 69 92 78 96 92 89 92 99 87 91 94 94 85 84 82 87 78 85 92 97 98 94 89 83 69 64 66 66 62 62 70 75 91
58 40 18 26 28 22 17 2 26 45 52 61 48 46 68 91 93 86 87 99 97 95 98 93 92 88 88 86 86 83 84 80 74 75 81 95 86 84 75 76 81 81 75 85 86 87 91
71 57 18 22 28 26 20 11 1 32 52 59 57 49 58 65 73 76 81 84 88 79 83 83 86 87 83 91 89 87 93 88 89 89 91 85 87 92 80 78 96 90 83 80 83 84 88
93 71 29 18 26 26 22 16 4 2 43 58 66 58 51 85 87 92 87 83 77 78 85 79 75 79 82 96 99 99 99 98 100 100 98 89 95 89 94 85 74 94 83 76 87 64 68
96 73 40 17 22 24 24 18 4 3 9 58 75 85 83 70 92 91 90 84 84 88 71 62 64 79 82 90 94 99 94 89 96 99 96 95 90 96 99 94 83 88 75 83 89 73 87
95 74 33 16 20 20 22 16 6 8 4 78 100 97 100 99 93 95 88 86 84 88 97 99 87 86 86 87 80 85 96 95 93 93 98 95 97 100 98 90 67 64 84 88 87 89 88
94 93 33 17 17 18 20 11 13 16 5 98 100 100 100 97 96 87 82 83 89 87 92 96 96 92 89 94 88 80 84 94 93 98 95 96 100 98 92 94 86 86 84 93 93 83 83
96 90 29 16 17 18 17 13 24 24 7 96 98 97 100 96 98 86 91 93 95 95 97 98 97 98 88 99 87 86 89 94 96 93 97 96 81 83 76 70 80 84 92 98 96 77 78